STARLINK-36257

Last updated on Tue Mar 24 2026 00:02:05 GMT+0000 (Coordinated Universal Time)

1 67903U 26035AA 26082.53163351 .00165476 00000+0 10893-2 0 9997 2 67903 97.2871 15.6271 0001726 47.8096 312.3316 15.75182684 6027
UTC large
Height (km)
Speed (km/s)
/
Latitude / Longitude
Inclination (degrees)
Orbital Period (minutes)
Azimuth
Elevation
Range (km)
Doppler Factor

Next 0 passes for location: London (51.5072 / 0.1276)

Sorry there are no passes over London.